Regional Weather Roundup
Issued by NWS Kansas City/Pleasant Hill, MO

Home | Current Version | Previous Version | Text Only | Print | Product List | Glossary On
Versions: 1 2 3 4 5 6 7 8 9 10 11 12 13 14 15 16 17 18 19 20 21 22 23 24 25 26 27
000
ASUS43 KEAX 222010
RWREAX

WEATHER ROUNDUP FOR EASTERN KANSAS AND NORTHWEST MISSOURI
NATIONAL WEATHER SERVICE KANSAS CITY/PLEASANT HILL MO
300 PM CDT SUN APR 22 2018

KSZ040-057-103>105-MOZ028-029-037-043-222100-
...KANSAS CITY METROPOLITAN AREA...

CITY           SKY/WX    TMP DP  RH WIND       PRES   REMARKS
K.C. INTL      CLOUDY    61  41  47 NE15      30.10S
K.C. DOWNTOWN  CLOUDY    63  45  51 E14G21    30.08F
LEES SUMMIT    CLOUDY    58  45  62 NE14G21   30.09F
OLATHE - IXD   CLOUDY    60  48  64 NE15G23   30.09S
OLATHE - OJC   CLOUDY    57  46  66 NE13G22   30.08F
LAWRENCE       MOSUNNY   67  50  54 NE13      30.08F

$$

MOZ001>008-011>017-020>025-030>033-038>040-044>046-053-054-222100-
...NORTHERN AND CENTRAL MISSOURI...

CITY           SKY/WX    TMP DP  RH WIND       PRES   REMARKS
ST. JOSEPH     CLOUDY    64  42  44 NE9       30.12F
MOSBY          CLOUDY    61  39  44 NE9       30.09F
WARRENSBURG    CLOUDY    55  46  71 NE9G16    30.08F
WHITEMAN AFB   CLOUDY    57  48  70 NE12      30.03F
CLINTON        LGT RAIN  54  54 100 NE14      30.05F
SEDALIA        CLOUDY    60  50  69 NE10      30.07F
WARSAW         NOT AVBL
CHILLICOTHE      N/A     66  42  41 E12G21    30.11F
KIRKSVILLE     MOSUNNY   69  42  37 E17G25    30.12F

$$

MOZ041-047>049-056>058-063>065-088>090-097-222100-
...EASTERN AND SOUTHERN MISSOURI...

CITY           SKY/WX    TMP DP  RH WIND       PRES   REMARKS
ST. LOUIS INTL CLOUDY    58  39  49 NE14      30.08F
SPIRIT OF STL  CLOUDY    60  43  53 E14       30.07F
COLUMBIA       LGT RAIN  59  46  62 NE15G24   30.07F
JEFFERSON CITY LGT RAIN  61  48  62 E10       30.06S
ROLLA          LGT RAIN  54  51  90 NE10      30.04S FOG
OSAGE BEACH    LGT RAIN  55  53  93 NE10G17   30.03F
SPRINGFIELD    CLOUDY    58  54  86 NE18      29.94F
BRANSON        PTSUNNY   59  50  72 CALM      29.94F
JOPLIN         CLOUDY    57  55  93 NE9       29.97F
WEST PLAINS    LGT RAIN  53  51  93 CALM      29.95F FOG

$$

IAZ060-094-KSZ022-034>040-054-083-096-NEZ052-066-093-222100-
...KANSAS...SOUTHEAST NEBRASKA AND IOWA...

CITY           SKY/WX    TMP DP  RH WIND       PRES   REMARKS
TOPEKA         SUNNY     67  50  54 E10       30.09F
MANHATTAN      CLOUDY    61  42  49 NE13      30.12F
EMPORIA        CLOUDY    56  51  84 N14G20    30.07F
CHANUTE        CLOUDY    53  50  89 N16G24    30.03F
WICHITA        CLOUDY    54  44  69 N13       30.09F
OMAHA          PTSUNNY   69  32  25 E13G24    30.17F
LINCOLN        CLOUDY    66  33  29 NE12      30.18F
FALLS CITY     PTSUNNY   67  39  35 E8        30.12F
LAMONI         CLOUDY    67  37  33 E10       30.14F
DES MOINES     PTSUNNY   69  28  21 E12G18    30.18F

$$





USA.gov is the U.S. government's official web portal to all federal, state and local government web resources and services.